[[{"header":{"parameterUnit":"m.s-1","parameterCategory":1,"la1":30.2991,"la2":30.254,"lo1":-89.0895,"lo2":-89.0444,"dy":0.0017,"dx":0.0017,"nx":28,"ny":28,"refTime":"2024-04-21T09:00:00:Z","depth":0,"parameterNumber":2,"parameterNumberName":"U-component_of_WINDS"},"data":[0,0,0,0,0,0,0,0,0,0,0,0,0,0,0,0,0,0,0,0,0,0,0,0,0,0,0,0,0,0,0,0,0,0,0,0,0,0,0,0,0,0,0,0,0,0,0,0,0,0,0,0,0,0,0,0,0,0,0.0594,0.0595,0,0.07,0.0701,0.0702,0.0746,0.0745,0.0745,0.0745,0.0854,0.0857,0.086,0,0,0,0,0,0,0,0,0,0,0,0,0,0.0431,0.0434,0.0594,0.0595,0.0597,0.07,0.0701,0.0703,0.0746,0.0745,0.0745,0.0745,0.0853,0.0857,0.086,0,0,0,0,0,0,0,0,0,0,0,0,0,0.0516,0.0435,0.0594,0.0631,0.0635,0.0699,0.0701,0.0703,0.0746,0.0745,0.0745,0.0745,0.0852,0.0856,0.0861,0.0897,0,0,0.0875,0.0877,0,0,0,0,0,0,0,0,0.0511,0.0522,0.0624,0.0628,0.0633,0.0709,0.0684,0.0768,0.0746,0.0704,0.0745,0.0745,0.0806,0.0815,0.0835,0.0902,0.0906,0.0876,0.0878,0.088,0.0882,0,0,0,0,0,0,0,0.0505,0.0517,0.0636,0.0625,0.0631,0.0642,0.0654,0.07,0.0756,0.0707,0.0711,0.0723,0.0809,0.0831,0.0838,0.0908,0.0875,0.088,0.0883,0.0884,0.1012,0.1013,0,0,0,0,0,0,0.0493,0.0512,0.0632,0.0639,0.057,0.0646,0.0659,0.0685,0.0755,0.0766,0.0723,0.0724,0.0823,0.0833,0.0842,0.089,0.088,0.0885,0.0887,0.1011,0.1012,0.1013,0,0,0,0,0,0,0.0489,0.0503,0.0628,0.0577,0.0593,0.0649,0.0678,0.0687,0.0709,0.0767,0.0777,0.0735,0.0823,0.0835,0.0883,0.0895,0.0887,0.0891,0.1011,0.1012,0.1012,0.0986,0,0,0,0,0,0,0.0484,0.0502,0.0515,0.0577,0.0596,0.0667,0.0679,0.069,0.0717,0.072,0.0781,0.0791,0.0824,0.0876,0.0888,0.0901,0.0895,0.101,0.1011,0.1012,0.0986,0.0986,0.0985,0,0,0,0,0,0.0478,0.0503,0.0516,0.053,0.0614,0.0667,0.0679,0.0716,0.0718,0.0733,0.077,0.0789,0.0891,0.0881,0.0894,0.0909,0.1009,0.1011,0.1012,0.0986,0.0986,0.0985,0,0,0,0,0,0,0.0441,0.0512,0.0526,0.0572,0.0613,0.0675,0.0694,0.0714,0.0756,0.0757,0.0801,0.0815,0.0859,0.0889,0.0876,0.0948,0.0952,0.0956,0.0927,0.0928,0.0927,0.092,0.0899,0,0,0,0,0,0.0438,0.0475,0.0535,0.0569,0.0589,0.0638,0.0663,0.0688,0.0733,0.0751,0.0791,0.0835,0.0877,0.0904,0.0946,0.099,0.1005,0.1007,0.1007,0.1006,0.101,0.1038,0.104,0.1017,0.1017,0.1017,0,0,0.0433,0.0476,0.0496,0.0563,0.0598,0.0636,0.0653,0.0692,0.0721,0.0757,0.0805,0.0836,0.0888,0.0935,0.0957,0.0961,0.1019,0.1008,0.1007,0.1011,0.1039,0.1041,0.1043,0.1018,0.1018,0.1018,0,0,0.0442,0.0478,0.0511,0.0546,0.06,0.0632,0.064,0.0699,0.0722,0.077,0.0799,0.0834,0.0905,0.0942,0.0969,0.0994,0.1014,0.1007,0.1006,0.1032,0.1034,0.1036,0.1047,0.105,0.101,0.101,0.101,0,0.0428,0.0486,0.0525,0.0564,0.0593,0.0628,0.0662,0.0695,0.0759,0.0779,0.0782,0.0873,0.091,0.0967,0.0973,0.0994,0.1006,0.1,0.1031,0.1033,0.1035,0.1046,0.1049,0.1009,0.1009,0.1009,0.1009,0,0.0468,0.0508,0.0528,0.059,0.0622,0.0658,0.0703,0.0731,0.0753,0.0786,0.0836,0.0882,0.0935,0.095,0.0972,0.1011,0.1012,0.1022,0.1027,0.1036,0.1046,0.1051,0.1007,0.1007,0.1008,0.1008,0,0,0.0456,0.054,0.0547,0.0576,0.0638,0.067,0.0709,0.0761,0.0784,0.0828,0.0862,0.0922,0.0933,0.0965,0.0991,0.1015,0.1034,0.1023,0.1025,0.1024,0.1081,0.1074,0.1078,0.1047,0.1048,0.1049,0.1078,0,0.0474,0.0545,0.0582,0.0637,0.0675,0.0709,0.0743,0.0786,0.0817,0.0856,0.0891,0.0934,0.0944,0.0963,0.0988,0.1026,0.1046,0.1025,0.1081,0.1083,0.1068,0.1083,0.1075,0.11,0.1082,0.1083,0.1083,0,0.0505,0.0549,0.0607,0.0667,0.0685,0.0714,0.0766,0.0801,0.0851,0.0873,0.0909,0.0936,0.0979,0.098,0.1042,0.1026,0.1052,0.1074,0.1076,0.1084,0.1084,0.1092,0.1109,0.1113,0.109,0.1089,0.1089,0,0.0492,0.0566,0.0611,0.0635,0.0705,0.0725,0.0756,0.0805,0.0834,0.0879,0.0899,0.0949,0.0976,0.1015,0.1055,0.1052,0.1113,0.1117,0.1134,0.1133,0.1146,0.1144,0.1167,0.116,0.116,0.116,0.116,0,0.0509,0.0544,0.0606,0.0634,0.0675,0.0718,0.0757,0.079,0.0834,0.087,0.0903,0.0936,0.0986,0.1026,0.1058,0.1105,0.1117,0.1137,0.1145,0.1135,0.1132,0.1153,0.1152,0.1161,0.1161,0.116,0.116,0,0.0502,0.0544,0.0596,0.0659,0.0676,0.0703,0.0757,0.0786,0.082,0.0866,0.0879,0.0932,0.0981,0.1025,0.109,0.1112,0.116,0.117,0.1143,0.1148,0.1163,0.1161,0.12,0.1209,0.1194,0.1194,0.1194,0,0.051,0.0538,0.0604,0.063,0.066,0.0702,0.0733,0.0777,0.0807,0.0867,0.0889,0.0941,0.0984,0.1061,0.1106,0.1157,0.1169,0.1179,0.1176,0.1166,0.1171,0.1169,0.1173,0.1179,0.1179,0.1178,0.1178,0,0.0521,0.0542,0.0584,0.0634,0.067,0.0712,0.0755,0.0775,0.0827,0.086,0.0911,0.0944,0.1011,0.1063,0.1118,0.1151,0.1174,0.1179,0.1186,0.1176,0.116,0.117,0.1144,0.1178,0.1178,0.1178,0.1178,0.1178,0.0523,0.055,0.0601,0.0648,0.0685,0.0725,0.0756,0.0795,0.0837,0.0895,0.0919,0.0971,0.1022,0.1099,0.1132,0.1174,0.1179,0.1188,0.1191,0.1192,0.1191,0.1152,0.1184,0.1184,0.1184,0.1185,0.1185,0,0.0537,0.0572,0.0615,0.0674,0.0712,0.073,0.0779,0.0809,0.0854,0.09,0.0943,0.1002,0.1052,0.1102,0.1156,0.118,0.1192,0.1193,0.1192,0.12,0.1184,0.1173,0.1182,0.1182,0.1182,0.1182,0.1182,0.1182,0.0549,0.0596,0.0623,0.069,0.0725,0.0776,0.0802,0.084,0.0877,0.0942,0.0984,0.1016,0.1064,0.1122,0.117,0.1184,0.1202,0.12,0.1217,0.1201,0.1201,0.12,0.1191,0.1204,0.1204,0.123,0.123,0.123]},{"header":{"parameterUnit":"m.s-1","parameterCategory":1,"la1":30.2991,"la2":30.254,"lo1":-89.0895,"lo2":-89.0444,"dy":0.0017,"dx":0.0017,"nx":28,"ny":28,"refTime":"2024-04-21T09:00:00:Z","depth":0,"parameterNumber":3,"parameterNumberName":"V-component_of_WINDS"},"data":[0,0,0,0,0,0,0,0,0,0,0,0,0,0,0,0,0,0,0,0,0,0,0,0,0,0,0,0,0,0,0,0,0,0,0,0,0,0,0,0,0,0,0,0,0,0,0,0,0,0,0,0,0,0,0,0,0,0,-6.5822,-6.5823,0,-6.5951,-6.5953,-6.5954,-6.5916,-6.5913,-6.591,-6.5908,-6.6032,-6.6037,-6.6043,0,0,0,0,0,0,0,0,0,0,0,0,0,-6.5533,-6.5539,-6.5822,-6.5824,-6.5825,-6.5951,-6.5953,-6.5955,-6.5916,-6.5913,-6.591,-6.5907,-6.603,-6.6037,-6.6044,0,0,0,0,0,0,0,0,0,0,0,0,0,-6.566,-6.5541,-6.5822,-6.5821,-6.5823,-6.5951,-6.5953,-6.5955,-6.5917,-6.5913,-6.5909,-6.5905,-6.6028,-6.6036,-6.6045,-6.6179,0,0,-6.6071,-6.6075,0,0,0,0,0,0,0,0,-6.5653,-6.5671,-6.582,-6.5822,-6.5823,-6.5914,-6.5897,-6.603,-6.5918,-6.5881,-6.5908,-6.5903,-6.5995,-6.6006,-6.6039,-6.6184,-6.619,-6.6072,-6.6077,-6.6081,-6.6083,0,0,0,0,0,0,0,-6.5644,-6.5665,-6.5873,-6.5822,-6.5824,-6.5812,-6.5826,-6.5922,-6.5958,-6.5884,-6.5881,-6.5898,-6.5995,-6.6031,-6.6042,-6.6191,-6.6072,-6.6079,-6.6085,-6.6088,-6.6452,-6.6457,0,0,0,0,0,0,-6.5635,-6.5658,-6.5869,-6.5877,-6.5727,-6.5821,-6.5836,-6.5888,-6.5957,-6.5964,-6.5901,-6.5895,-6.6018,-6.6032,-6.6046,-6.6207,-6.6081,-6.6089,-6.6094,-6.6448,-6.6453,-6.6458,0,0,0,0,0,0,-6.5629,-6.5655,-6.5864,-6.5767,-6.5793,-6.583,-6.5889,-6.5893,-6.5929,-6.5971,-6.5976,-6.5931,-6.6015,-6.6034,-6.6146,-6.6211,-6.6093,-6.6101,-6.6443,-6.645,-6.6456,-6.6531,0,0,0,0,0,0,-6.5621,-6.5653,-6.5706,-6.5768,-6.5798,-6.5965,-6.5893,-6.5898,-6.5945,-6.5939,-6.6,-6.6006,-6.6014,-6.6134,-6.6155,-6.6221,-6.6108,-6.6437,-6.6446,-6.6454,-6.6522,-6.6539,-6.6553,0,0,0,0,0,-6.5611,-6.572,-6.5709,-6.5734,-6.5866,-6.5968,-6.5985,-6.5993,-6.595,-6.6003,-6.6029,-6.6004,-6.6201,-6.6146,-6.6169,-6.6238,-6.6433,-6.6443,-6.6453,-6.6516,-6.6536,-6.6553,0,0,0,0,0,0,-6.566,-6.5728,-6.5716,-6.5849,-6.5904,-6.5962,-6.6028,-6.6014,-6.608,-6.6071,-6.6076,-6.609,-6.6206,-6.6233,-6.6171,-6.6371,-6.631,-6.6325,-6.6349,-6.6369,-6.6384,-6.6374,-6.6115,0,0,0,0,0,-6.5687,-6.5768,-6.5821,-6.5933,-6.5962,-6.5991,-6.6035,-6.6038,-6.6093,-6.6115,-6.615,-6.6202,-6.6276,-6.6324,-6.6394,-6.6526,-6.6538,-6.6586,-6.6601,-6.6613,-6.6626,-6.6698,-6.6719,-6.6491,-6.6491,-6.6491,0,0,-6.5742,-6.5789,-6.5839,-6.5944,-6.5987,-6.6068,-6.601,-6.6098,-6.6157,-6.6127,-6.6237,-6.6264,-6.6323,-6.6447,-6.6503,-6.6473,-6.6692,-6.6626,-6.6636,-6.6642,-6.671,-6.6732,-6.6751,-6.6498,-6.6497,-6.6496,0,0,-6.5885,-6.5929,-6.6027,-6.6072,-6.6138,-6.6157,-6.618,-6.6241,-6.6259,-6.637,-6.6349,-6.6418,-6.6545,-6.6588,-6.6626,-6.6786,-6.6765,-6.6808,-6.6888,-6.6957,-6.6975,-6.6991,-6.7048,-6.7068,-6.6821,-6.6821,-6.6821,0,-6.5944,-6.6068,-6.6078,-6.617,-6.6215,-6.6195,-6.6294,-6.6335,-6.642,-6.6451,-6.6417,-6.6576,-6.6614,-6.6747,-6.6787,-6.6818,-6.6844,-6.6801,-6.6973,-6.6989,-6.7003,-6.7057,-6.7078,-6.6826,-6.6825,-6.6825,-6.6824,0,-6.6138,-6.6224,-6.6295,-6.6381,-6.6435,-6.6528,-6.6551,-6.6604,-6.6601,-6.6623,-6.6735,-6.678,-6.6859,-6.6891,-6.6888,-6.7023,-6.7003,-6.6971,-6.6909,-6.703,-6.708,-6.7101,-6.6833,-6.6831,-6.683,-6.6828,0,0,-6.6313,-6.6405,-6.6431,-6.647,-6.6542,-6.6608,-6.67,-6.678,-6.6825,-6.6884,-6.696,-6.7068,-6.7039,-6.7083,-6.7084,-6.7146,-6.7269,-6.7106,-6.7108,-6.7134,-6.742,-6.7444,-6.7467,-6.7256,-6.726,-6.7263,-6.7415,0,-6.6461,-6.6627,-6.6639,-6.6788,-6.6867,-6.6849,-6.6929,-6.6981,-6.7004,-6.7072,-6.7095,-6.7172,-6.7129,-6.7155,-6.7215,-6.7241,-6.7326,-6.7231,-6.7325,-6.7328,-6.731,-6.7494,-6.7519,-6.766,-6.7435,-6.7438,-6.7441,0,-6.6656,-6.6724,-6.6882,-6.6944,-6.6977,-6.7049,-6.7124,-6.719,-6.7248,-6.7259,-6.7309,-6.7303,-6.7395,-6.7331,-6.7457,-6.7392,-6.7431,-6.7449,-6.7455,-6.7463,-6.7391,-6.7506,-6.7705,-6.7726,-6.7472,-6.747,-6.7467,0,-6.6768,-6.6899,-6.701,-6.7044,-6.7119,-6.717,-6.7203,-6.7257,-6.7304,-6.7368,-6.7399,-6.7472,-6.7511,-6.7567,-6.7579,-6.7532,-6.7705,-6.7642,-6.7716,-6.7715,-6.7752,-6.7749,-6.7959,-6.7779,-6.7778,-6.7778,-6.7778,0,-6.6931,-6.7028,-6.7062,-6.713,-6.7237,-6.725,-6.7354,-6.7384,-6.7432,-6.7504,-6.7492,-6.7559,-6.7572,-6.7641,-6.7651,-6.7753,-6.7771,-6.7781,-6.7783,-6.7783,-6.7781,-6.7807,-6.7798,-6.7784,-6.7782,-6.7781,-6.778,0,-6.7074,-6.7101,-6.7221,-6.7283,-6.7301,-6.7377,-6.7429,-6.7493,-6.7515,-6.7606,-6.7628,-6.7661,-6.7742,-6.776,-6.7855,-6.7862,-6.7983,-6.7975,-6.7965,-6.7964,-6.8036,-6.8029,-6.827,-6.8301,-6.8101,-6.8103,-6.8104,0,-6.7176,-6.7251,-6.7322,-6.7371,-6.7408,-6.7486,-6.7535,-6.755,-6.7601,-6.7673,-6.7728,-6.7808,-6.7873,-6.8002,-6.8033,-6.8105,-6.8098,-6.8178,-6.8109,-6.8106,-6.8099,-6.8094,-6.8101,-6.8191,-6.8193,-6.8195,-6.8196,0,-6.7355,-6.7365,-6.7438,-6.7517,-6.7577,-6.7638,-6.7697,-6.7736,-6.7759,-6.7816,-6.7901,-6.7951,-6.805,-6.8129,-6.8202,-6.8233,-6.8218,-6.8218,-6.8239,-6.8238,-6.8229,-6.8235,-6.8,-6.8212,-6.821,-6.8209,-6.8208,-6.8208,-6.748,-6.7546,-6.7607,-6.7688,-6.7735,-6.779,-6.7854,-6.7885,-6.7957,-6.8041,-6.8044,-6.8135,-6.819,-6.8287,-6.8323,-6.8392,-6.8367,-6.8397,-6.8405,-6.8412,-6.8418,-6.8219,-6.8406,-6.8405,-6.8405,-6.8404,-6.8404,0,-6.7657,-6.7696,-6.7772,-6.7856,-6.792,-6.7904,-6.7968,-6.8022,-6.8104,-6.8158,-6.8223,-6.8319,-6.8396,-6.8434,-6.8509,-6.8558,-6.8552,-6.8577,-6.8573,-6.858,-6.8437,-6.8411,-6.858,-6.858,-6.858,-6.858,-6.858,-6.8579,-6.7757,-6.7868,-6.7885,-6.8017,-6.8055,-6.8147,-6.8185,-6.8235,-6.8278,-6.8388,-6.8453,-6.8478,-6.8525,-6.8604,-6.8673,-6.8682,-6.871,-6.8737,-6.8743,-6.8608,-6.859,-6.8573,-6.8549,-6.8743,-6.8744,-6.888,-6.8881,-6.8882]}]]